Regional Weather Roundup
Issued by NWS

Home | Current Version | Previous Version | Graphics & Text | Print | Product List | Glossary On
Versions: 1 2 3 4 5 6 7 8 9 10 11 12 13 14 15 16 17 18 19 20 21 22 23 24 25 26 27 28 29 30 31 32 33 34 35 36 37 38 39 40 41 42 43 44 45 46 47 48 49 50
000
ASUS43 KLOT 240404
RWRIL

ILLINOIS REGIONAL WEATHER ROUNDUP
NATIONAL WEATHER SERVICE CHICAGO/ROMEOVILLE IL
1100 PM CDT TUE AUG 23 2016

NOTE: "FAIR" INDICATES FEW OR NO CLOUDS BELOW 12,000 FEET WITH NO
SIGNIFICANT WEATHER AND/OR OBSTRUCTIONS TO VISIBILITY.

* THESE STATIONS ARE NOT UNDER NWS QUALITY CONTROL. THEY ALSO MAY NOT
  REPORT WEATHER SUCH AS PRECIPITATION OR FOG.

ILZ001-002-007-009-015-016-024-240500-
NORTHWEST ILLINOIS

CITY           SKY/WX    TMP DP  RH WIND       PRES   REMARKS
MOLINE         CLOUDY    74  67  78 S10G20    30.02F
STERLING*      CLOUDY    72  68  87 VRB3      30.06S
SAVANNA*       CLOUDY    73  68  85 S17       30.01F
$$

ILZ003-004-008-010-011-017-018-240500-
NORTH CENTRAL ILLINOIS

CITY           SKY/WX    TMP DP  RH WIND       PRES   REMARKS
ROCKFORD       CLOUDY    73  66  78 S12       30.06F
FREEPORT*      CLOUDY    70  66  88 S12       30.04F
ROCHELLE*      CLOUDY    71  66  84 S12       30.07F
$$

ILZ005-006-012>014-019>023-240500-
NORTHEAST ILLINOIS

CITY           SKY/WX    TMP DP  RH WIND       PRES   REMARKS
CHICAGO-OHARE  CLOUDY    74  62  66 S14       30.09F
CHICAGO-MIDWAY CLOUDY    76  62  62 S9        30.09F
AURORA         CLOUDY    74  66  76 SE9       30.09S
LANSING*       CLOUDY    72  62  71 S6        30.11F
JOLIET*        CLOUDY    74  66  76 S6        30.10S
WAUKEGAN       MOCLDY    74  62  66 S8        30.08F
DUPAGE AIRPORT CLOUDY    74  63  68 S10       30.08F
KANKAKEE*      CLEAR     69  64  85 SE6       30.11F
WHEELING       CLOUDY    75  62  64 S9        30.10F
MORRIS*        CLOUDY    72  66  80 S6        30.08S
ROMEOVILLE*    CLOUDY    72  62  71 S10       30.10S
NORTHERLY ISL    N/A     74  60  61 S7          N/A
$$

LMZ740>746-240500-
SOUTHERN LAKE MICHIGAN

STATION/POSITION SKY/WX   TEMP    WIND        PRES    VSBY  WAVE
                          AIR SEA DIR/SP/G                  HT/PER
                          (F)     (DEG/KT/KT) (MB)    (MI)  (FT/S)
SOUTHERN BUOY              76 75  160/ 16/ 19 1018.7          2/ 5
WILMETTE HARBOR            73 72  190/ 12/ 16   N/A           2/ 3
HARRISON CRIB              74     170/ 17/ 18   N/A
BURNHAM HARBOR             74     170/  8/ 10   N/A
CALUMET HARBOR             75     160/  8/ 14 1019.2F
BURNS HARBOR               74     170/  9/ 17 1020.3F
MICHIGAN CITY              72     130/  8/ 11   N/A
MICHIGAN CITY 6N           73 73  170/ 10/ 14   N/A           1
ST. JOSEPH                 73 75  150/ 10/ 14 1020.4F         1/ 3
$$

ILZ025>027-034>036-040-047-049-050-058-095>099-240500-
WEST-CENTRAL ILLINOIS

CITY           SKY/WX    TMP DP  RH WIND       PRES   REMARKS
QUINCY         PTCLDY    72  71  97 S13       30.03F
GALESBURG*     CLOUDY    71  67  89 SE8G16    30.05R
MACOMB*        PTCLDY    70  68  94 S8        30.07S
JACKSONVILLE*  CLEAR     72  68  88 S9        30.07F
PITTSFIELD*    PTCLDY    71  69  96 SE9       30.07S
$$

ILZ028>032-037-038-041>044-048-051>054-059>061-240500-
CENTRAL ILLINOIS

CITY           SKY/WX    TMP DP  RH WIND       PRES   REMARKS
PONTIAC        PTCLDY    70  69  95 SE5       30.11R
BLOOMINGTON    CLOUDY    70  66  87 S14       30.11S
DECATUR        PTCLDY    72  65  78 S9        30.12S
PEORIA         CLOUDY    72  67  84 S15       30.07F
LACON*         CLOUDY    71  65  80 S10G16    30.07R
LINCOLN*       CLEAR     70  67  90 S7        30.09S
SPRINGFIELD    CLEAR     72  68  87 S10       30.08F
TAYLORVILLE    CLOUDY    71  67  87 S13       30.10S
$$

ILZ033-039-045-046-055>057-062-063-240500-
EAST-CENTRAL ILLINOIS

CITY           SKY/WX    TMP DP  RH WIND       PRES   REMARKS
CHAMPAIGN      CLOUDY    70  66  87 S10       30.13S
RANTOUL*       PTCLDY    70  67  89 SE6       30.13R
MATTOON        CLEAR     70  64  81 SE7       30.14S
PARIS*         PTCLDY    66  65  96 CALM      30.15S
$$

ILZ079-100>102-240500-
SOUTHWEST ILLINOIS

CITY           SKY/WX    TMP DP  RH WIND       PRES   REMARKS
ALTON          CLOUDY    70  68  93 SE7       30.10S
BELLEVILLE     PTCLDY    72  71  99 E3        30.09F
CAHOKIA*       CLEAR     73  70  90 SE7       30.09S
SPARTA*        CLOUDY    73  72  96 SE6       30.11F
$$

ILZ064>066-069>071-074>076-080>082-084>086-088>090-092>094-240500-
SOUTH-CENTRAL ILLINOIS

CITY           SKY/WX    TMP DP  RH WIND       PRES   REMARKS
CARBONDALE     CLEAR     73  70  90 SE5       30.12S
EFFINGHAM*     CLOUDY    71  68  90 SE6       30.16S
MARION         CLEAR     75  72  88 S5        30.14S
MT. VERNON     CLOUDY    73  64  73 CALM      30.15R
CENTRALIA*     CLOUDY    72  70  95 SE6       30.12S
SALEM*         CLOUDY    74  68  81 SE7       30.14R
$$

ILZ067-068-072-073-078-083-087-091-240500-
SOUTHEAST ILLINOIS

CITY           SKY/WX    TMP DP  RH WIND       PRES   REMARKS
LAWRENCEVILLE  CLOUDY    70  67  90 SE3       30.16S
FLORA*         CLOUDY    72  69  90 S3        30.15R
FAIRFIELD*     CLOUDY    72  68  87 CALM      30.14S
HARRISBURG*    PTCLDY    73  72  97 S3        30.15R
ROBINSON*      CLOUDY    67  65  91 S6        30.16S
CARMI*         CLOUDY    71  70  96 CALM      30.15R
$$

ABBREVIATIONS USED IN REMARKS
   TC - TEMPERATURE IN CELSIUS
  WCI - WIND CHILL INDEX
   HX - HEAT INDEX
  VSB - VISIBILITY
$$





USA.gov is the U.S. government's official web portal to all federal, state and local government web resources and services.